Wind_Speed
40 43 42 43 43 45 46 49 51 53 56 60 62 64 67 67 67 66 67 68 71 75 78 80 78 73 65 58 52 47 41 39
39 43 43 44 44 46 47 49 52 55 58 62 63 65 66 67 66 67 67 71 74 77 81 81 75 69 62 56 50 45 43 43
39 41 43 45 44 47 48 51 54 57 60 62 64 65 67 65 68 68 70 73 77 79 81 78 71 64 59 53 49 48 48 48
40 41 44 45 45 48 50 53 56 59 61 63 65 66 67 66 67 69 72 74 78 79 79 71 67 62 58 54 51 50 50 51
43 44 45 46 46 49 53 55 57 58 62 64 65 66 66 66 68 71 73 76 78 80 75 69 65 61 57 55 54 54 52 51
45 46 47 48 48 51 55 56 58 61 63 66 67 65 65 66 70 72 74 76 80 78 73 68 63 59 58 57 56 55 54 48
47 48 49 49 50 53 55 56 59 62 65 68 66 65 64 67 70 72 74 77 79 77 71 66 61 59 58 57 57 56 47 43
49 49 49 49 52 55 56 58 62 64 69 69 67 62 65 68 70 73 75 77 77 73 68 63 59 58 57 57 56 47 43 43
49 48 49 51 54 56 58 60 63 67 74 70 62 62 66 69 72 74 75 76 76 70 64 59 58 57 57 55 47 43 42 45
49 49 51 53 56 57 59 62 65 72 71 61 59 63 67 70 74 74 75 75 73 66 58 57 57 56 56 48 43 41 45 45
50 51 53 55 58 58 60 64 71 72 61 58 61 65 69 71 73 75 75 78 66 56 55 56 56 55 50 43 40 44 46 45
51 52 55 58 59 57 62 69 71 59 55 58 62 66 70 72 74 74 78 68 55 53 54 55 53 52 44 40 42 46 46 43
52 54 57 58 58 58 64 68 57 54 57 60 64 67 70 72 74 76 70 56 51 53 54 53 51 47 41 40 44 47 45 40
53 56 59 63 53 58 61 53 50 55 59 62 65 69 70 72 74 71 55 49 52 54 53 50 49 41 40 41 45 45 41 36
58 60 62 52 52 56 51 49 52 55 57 62 66 68 71 72 72 57 47 50 53 54 50 48 45 38 39 41 44 41 37 32
60 60 53 48 49 48 47 50 53 55 58 63 66 69 72 71 58 45 48 51 53 51 48 47 39 38 38 41 41 38 32 30
61 56 45 46 46 44 46 50 51 54 59 63 65 70 70 59 43 46 49 52 52 48 47 44 36 37 39 41 38 34 28 27
54 45 44 44 45 45 47 49 51 53 57 61 65 67 60 42 43 47 50 53 50 46 46 38 35 36 40 40 36 30 26 26
46 40 43 45 46 44 47 48 49 52 55 59 64 64 43 39 43 47 51 52 47 45 45 33 34 37 39 39 34 28 26 25
Wind_Direction
316 314 318 318 321 323 324 326 325 324 323 322 320 319 318 318 318 320 320 321 322 322 323 326 328 328 326 324 322 318 315 312
314 312 315 317 319 321 324 326 324 324 323 321 319 318 318 319 319 321 322 324 324 324 325 329 329 328 325 323 320 317 315 311
312 311 314 316 319 320 324 325 324 323 323 320 319 318 318 320 322 322 324 325 325 325 328 331 329 326 324 323 320 317 315 311
312 313 314 315 319 320 324 324 324 323 322 321 320 320 320 323 323 325 326 326 326 328 332 331 328 325 324 322 321 319 316 312
312 313 314 316 319 320 322 324 324 323 322 322 321 320 321 323 326 326 326 327 328 332 333 330 327 326 325 324 322 321 318 314
311 313 314 317 318 319 320 323 324 324 322 323 321 321 324 326 326 326 328 328 330 334 334 330 327 327 326 324 324 323 320 317
311 314 315 315 315 317 320 323 325 323 323 324 322 321 325 327 326 328 329 330 333 335 332 329 329 329 327 326 326 323 322 322
312 312 312 313 314 317 321 325 324 323 325 325 320 324 326 327 327 329 330 332 334 334 329 331 330 330 329 328 326 326 326 326
308 308 310 312 315 319 322 324 323 324 325 324 324 327 326 326 329 331 331 333 334 330 331 331 331 331 330 329 329 331 330 330
304 308 310 312 315 319 321 323 323 323 326 323 327 326 326 329 331 331 332 333 333 332 333 333 333 333 331 332 334 334 332 330
307 309 309 312 314 317 321 323 322 325 324 327 328 327 329 332 331 332 333 333 331 335 335 335 335 333 332 335 336 335 333 331
305 306 308 310 313 317 322 321 323 324 326 327 328 330 332 331 331 333 333 332 336 337 336 336 335 334 335 338 336 336 333 333
302 304 305 307 309 318 321 321 325 326 327 329 330 331 332 332 333 333 333 337 339 338 338 337 336 336 338 339 337 336 336 335
299 299 299 303 315 322 319 323 327 327 329 330 331 332 333 331 334 334 337 342 341 340 339 338 338 340 342 340 339 338 340 339
294 297 301 306 320 319 319 324 327 328 329 329 332 333 331 333 336 336 344 343 342 341 340 341 341 343 344 342 341 342 342 346
293 299 300 314 317 319 322 327 328 329 329 332 333 332 332 336 337 344 346 344 343 343 343 343 343 346 346 345 345 347 347 351
295 298 306 315 318 319 326 326 326 328 329 332 333 331 335 339 344 349 345 346 345 346 346 345 347 350 349 350 351 351 355 357
296 304 314 318 319 322 324 325 326 328 332 332 332 334 340 343 350 348 349 348 349 348 347 347 351 351 352 354 356 358 1 3
306 314 321 319 317 321 322 324 325 328 333 333 335 338 343 349 352 350 352 352 351 349 350 351 354 354 355 357 0 4 6 8
Height
5832 5826 5821 5816 5810 5804 5798 5790 5782 5774 5766 5757 5747 5737 5727 5718 5708 5698 5686 5675 5664 5652 5641 5629 5615 5602 5590 5579 5570 5561 5555 5550
5828 5821 5816 5810 5805 5798 5792 5784 5775 5767 5758 5748 5738 5727 5717 5706 5695 5687 5675 5663 5652 5640 5627 5614 5601 5588 5577 5567 5558 5551 5544 5539
5823 5816 5810 5805 5800 5793 5786 5778 5768 5759 5750 5740 5729 5718 5707 5696 5685 5675 5664 5653 5641 5628 5614 5600 5587 5575 5563 5554 5547 5539 5530 5526
5817 5810 5805 5799 5794 5786 5779 5770 5761 5751 5741 5731 5719 5707 5696 5685 5674 5663 5652 5640 5627 5614 5600 5587 5574 5562 5551 5542 5535 5527 5519 5511
5810 5806 5799 5793 5788 5779 5771 5763 5753 5744 5732 5721 5710 5699 5688 5676 5665 5653 5641 5629 5616 5602 5588 5574 5562 5550 5539 5530 5521 5513 5506 5498
5804 5799 5793 5787 5780 5771 5763 5754 5745 5735 5724 5712 5700 5689 5678 5666 5655 5643 5631 5617 5604 5590 5576 5562 5550 5539 5529 5519 5509 5499 5491 5484
5796 5792 5786 5779 5772 5764 5755 5746 5737 5726 5714 5703 5692 5680 5669 5657 5645 5633 5620 5607 5592 5579 5565 5552 5540 5529 5519 5508 5497 5487 5479 5472
5790 5784 5778 5771 5764 5756 5748 5738 5727 5716 5705 5694 5682 5671 5660 5648 5636 5624 5611 5597 5583 5569 5555 5543 5531 5520 5510 5498 5487 5478 5470 5463
5782 5776 5770 5764 5756 5748 5739 5729 5718 5707 5696 5684 5673 5662 5651 5639 5627 5614 5601 5587 5573 5558 5545 5533 5522 5511 5500 5489 5479 5471 5463 5454
5774 5769 5763 5757 5748 5739 5730 5720 5709 5698 5686 5675 5664 5654 5642 5631 5619 5605 5592 5577 5563 5548 5536 5525 5514 5503 5493 5481 5473 5465 5456 5446
5768 5762 5755 5748 5739 5730 5721 5711 5700 5688 5677 5667 5657 5647 5635 5623 5610 5597 5583 5569 5553 5540 5529 5518 5507 5497 5486 5476 5468 5459 5449 5439
5760 5754 5747 5739 5731 5722 5713 5702 5691 5680 5670 5660 5649 5639 5627 5615 5602 5588 5574 5558 5545 5534 5524 5513 5502 5491 5481 5472 5463 5453 5443 5433
5752 5745 5738 5730 5722 5714 5704 5694 5683 5673 5664 5654 5644 5632 5619 5607 5593 5579 5564 5550 5539 5529 5518 5508 5497 5486 5476 5468 5459 5448 5438 5429
5743 5736 5728 5721 5713 5705 5695 5685 5675 5667 5658 5648 5636 5625 5612 5599 5584 5570 5556 5545 5535 5523 5513 5503 5493 5482 5473 5464 5454 5443 5433 5425
5733 5726 5721 5713 5704 5696 5688 5677 5669 5661 5651 5641 5630 5618 5605 5591 5577 5563 5552 5541 5530 5519 5509 5498 5488 5480 5471 5461 5450 5440 5431 5422
5724 5720 5713 5704 5696 5688 5680 5671 5664 5655 5645 5635 5623 5611 5598 5584 5570 5559 5548 5537 5526 5515 5505 5494 5485 5477 5468 5459 5448 5438 5429 5422
5717 5712 5704 5696 5689 5681 5672 5666 5657 5648 5639 5628 5616 5604 5591 5578 5567 5556 5546 5534 5523 5512 5502 5492 5483 5475 5466 5455 5445 5437 5429 5422
5710 5703 5697 5690 5682 5674 5667 5660 5652 5642 5632 5621 5610 5597 5585 5574 5564 5554 5542 5531 5519 5509 5500 5490 5482 5474 5464 5454 5445 5436 5430 5423
5704 5696 5691 5683 5675 5667 5662 5653 5644 5637 5625 5614 5603 5592 5581 5572 5562 5552 5540 5529 5518 5508 5498 5489 5481 5473 5463 5454 5445 5437 5431 5424